Location: Maccacari
(45.1333°N, 11.1333°E)
Time: 03:01:38
(UTC+00:00)

Altair - Pass Details

Date: 31 January 2021
Orbit: 1501 x 1682 km, 47.2° (Epoch: 01 March)

Event Time Altitude Azimuth Distance (km) Brightness Sun altitude
Rises 23:38:50 0° 176° (S) 4,756 - -61.9°
Reaches altitude 10° 23:43:35 10° 156° (SSE) 3,813 - -61.8°
Maximum altitude 23:48:43 16° 123° (ESE) 3,415 - -61.7°
Drops below altitude 10° 23:53:56 10° 91° (E) 3,895 - -61.5°
Exits shadow 23:57:02 - 77° (ENE) 4,503 10.1 -61.4°
Sets 23:58:48 0° 71° (ENE) 4,913 10.4 -61.3°
